Location: Stuart
(27.1975°N, 80.2528°W)
Time: 06:32:48
(UTC-04:00)

N. Korean satellite - Pass Details

Date: 01 April 2020
Orbit: 455 x 504 km, 97.2° (Epoch: 01 June)

Event Time Altitude Azimuth Distance (km) Brightness Sun altitude
Rises 06:00:22 0° 39° (NE) 2,474 11.1 -16.3°
Reaches altitude 10° 06:03:41 10° 75° (ENE) 1,592 10.6 -15.6°
Maximum altitude 06:04:51 11° 95° (E) 1,506 10.2 -15.3°
Drops below altitude 10° 06:06:00 10° 115° (ESE) 1,588 9.9 -15.1°
Sets 06:09:17 0° 151° (SSE) 2,457 10.4 -14.4°
